Lamar, CO

6:44 AM MST on December 15, 2019 (GMT -0700)
Lamar Municipal

Weather History for KLAA - October, 2019

Change the Weather History Date:

Thursday, October 3, 2019

  Actual Average Record
Temperature  
Mean Temperature 54 °F 59 °F  
Max Temperature 67 °F 76 °F 99 °F (1925)
Min Temperature 41 °F 41 °F 26 °F (1943)
Degree Days  
Heating Degree Days 11 7  
Month to date heating degree days 20 20  
Since 1 July heating degree days 26 103  
Cooling Degree Days 0 1  
Month to date cooling degree days 0 3  
Year to date cooling degree days 1405 1115  
Growing Degree Days 6 (Base 50)    
Moisture  
Dew Point 41 °F    
Average Humidity 59    
Maximum Humidity 86    
Minimum Humidity 32    
Precipitation  
Precipitation 0.00 in 0.02 in 1.10 in (1930)
Month to date precipitation 0.01 0.08  
Year to date precipitation 7.76 13.70  
Sea Level Pressure  
Sea Level Pressure 30.21 in    
Wind  
Wind Speed 8 mph (East)    
Max Wind Speed 18 mph    
Max Gust Speed 26 mph    
Visibility 10 miles    
Events      
T = Trace of Precipitation, MM = Missing Value Source: NWS Daily Summary

Daily Weather History Graph

Daily Weather History Graph

Search for Another Location

Airport or City:

Astronomy

Oct. 03, 2019 Rise Set
Actual Time 6:48 AM MDT 6:30 PM MDT
Civil Twilight 6:21 AM MDT 6:57 PM MDT
Nautical Twilight 5:51 AM MDT 7:27 PM MDT
Astronomical Twilight 5:20 AM MDT 7:58 PM MDT
Moon 12:17 PM MDT (10/3) 10:16 PM MDT (10/3)
Length of Visible Light 12h 35m
Length of Day
11h 42m
Waxing Crescent, 30% of the Moon is Illuminated
Oct 3
Waxing Crescent
Oct 5
First Quarter
Oct 13
Full
Oct 21
Last Quarter
Oct 27
New

Hourly Weather History & Observations

Time (MDT) Temp. Dew Point Humidity Pressure Visibility Wind Dir Wind Speed Gust Speed Precip Events Conditions
12:53 AM 51.1 °F 45.0 °F 80% 30.15 in 10.0 mi NNE 9.2 mph - N/A   Overcast
1:12 AM 51.1 °F 45.0 °F 80% 30.22 in 10.0 mi NE 10.4 mph - N/A   Overcast
1:27 AM 51.1 °F 45.0 °F 80% 30.22 in 10.0 mi ENE 9.2 mph - N/A   Overcast
1:53 AM 50.0 °F 44.1 °F 80% 30.18 in 10.0 mi NE 6.9 mph - N/A   Overcast
2:02 AM 50.0 °F 44.1 °F 80% 30.24 in 10.0 mi NE 5.8 mph - N/A   Overcast
2:53 AM 50.0 °F 44.1 °F 80% 30.17 in 10.0 mi NNE 5.8 mph - N/A   Overcast
3:53 AM 50.0 °F 44.1 °F 80% 30.19 in 10.0 mi NNE 4.6 mph - N/A   Overcast
4:53 AM 48.9 °F 43.0 °F 80% 30.21 in 10.0 mi NNE 3.5 mph - N/A   Overcast
5:53 AM 48.0 °F 43.0 °F 83% 30.24 in 10.0 mi North 3.5 mph - N/A   Overcast
6:53 AM 46.9 °F 43.0 °F 86% 30.27 in 10.0 mi Calm Calm - N/A   Scattered Clouds
7:53 AM 46.9 °F 43.0 °F 86% 30.29 in 10.0 mi Calm Calm - N/A   Clear
8:53 AM 48.9 °F 43.0 °F 80% 30.30 in 10.0 mi Calm Calm - N/A   Mostly Cloudy
9:53 AM 53.1 °F 41.0 °F 64% 30.31 in 10.0 mi Calm Calm - N/A   Partly Cloudy
10:53 AM 55.0 °F 37.9 °F 53% 30.30 in 10.0 mi SE 6.9 mph - N/A   Overcast
11:53 AM 59.0 °F 37.0 °F 44% 30.27 in 10.0 mi ESE 5.8 mph - N/A   Scattered Clouds
12:53 PM 63.0 °F 34.0 °F 34% 30.23 in 10.0 mi East 6.9 mph - N/A   Clear
1:53 PM 63.0 °F 33.1 °F 33% 30.19 in 10.0 mi SSE 11.5 mph 19.6 mph N/A   Clear
2:53 PM 64.9 °F 35.1 °F 33% 30.17 in 10.0 mi SSE 11.5 mph 19.6 mph N/A   Clear
3:53 PM 66.0 °F 35.1 °F 32% 30.14 in 10.0 mi ESE 15.0 mph 23.0 mph N/A   Clear
4:53 PM 64.9 °F 37.0 °F 36% 30.14 in 10.0 mi SE 11.5 mph 20.7 mph N/A   Clear
5:53 PM 61.0 °F 37.0 °F 41% 30.15 in 10.0 mi SE 12.7 mph - N/A   Clear
6:53 PM 57.0 °F 39.0 °F 51% 30.17 in 10.0 mi SE 9.2 mph - N/A   Partly Cloudy
7:08 PM 57.9 °F 39.0 °F 49% 30.22 in 10.0 mi SE 16.1 mph - N/A   Mostly Cloudy
7:41 PM 57.0 °F 41.0 °F 55% 30.22 in 10.0 mi SE 12.7 mph - N/A   Mostly Cloudy
7:53 PM 57.9 °F 41.0 °F 53% 30.17 in 10.0 mi SE 12.7 mph 20.7 mph N/A   Mostly Cloudy
8:53 PM 55.0 °F 39.0 °F 55% 30.17 in 10.0 mi SE 11.5 mph - N/A   Partly Cloudy
9:53 PM 53.1 °F 39.9 °F 61% 30.16 in 10.0 mi ESE 10.4 mph - N/A   Clear
11:53 PM 51.1 °F 42.1 °F 71% 30.14 in 10.0 mi ESE 11.5 mph - N/A   Clear